DW2489 Weather Reports


time (UTC)temp
C
wind
direction
speed
KPH
gust
KPH
rain 1hr
cm
rain 24hr
cm
rain mn
cm
humidity
%
barometer
mb
20260506202137 8 21 3.2 14.5 0.20 2.34 2.34 1005.1
20260506201636 8 48 4.8 16.1 0.20 2.34 2.34 1005.1
20260506201134 8 56 6.4 16.1 0.20 2.34 2.34 1005.1
20260506200633 8 30 4.8 16.1 0.18 2.31 2.31 1005.1
20260506200131 8 44 3.2 14.5 0.18 2.31 2.31 1005.1
20260506195628 8 9 4.8 14.5 0.18 2.31 2.31 1004.7
20260506195126 8 14 6.4 16.1 0.18 2.31 2.31 1005.1
20260506194624 8 78 4.8 16.1 0.20 2.31 2.31 1004.7
20260506194123 8 24 8.0 19.3 0.10 2.29 2.21 1005.1
20260506193449 8 23 3.2 19.3 0.05 2.41 2.16 1005.1
20260506192947 9 28 8.0 16.1 0.08 2.41 2.16 1005.1
20260506192446 9 54 8.0 16.1 0.10 2.39 2.13 1005.1
20260506191944 9 27 4.8 19.3 0.13 2.39 2.13 1005.1
20260506191442 10 79 3.2 24.1 0.15 2.39 2.13 1004.7
20260506190940 10 44 6.4 24.1 0.18 2.39 2.13 1004.7
20260506190439 10 49 8.0 24.1 0.18 2.39 2.13 1004.7
20260506185907 10 44 8.0 20.9 0.20 2.39 2.13 1004.7
20260506185406 10 67 4.8 20.9 0.23 2.39 2.13 1004.7
20260506184901 10 83 6.4 20.9 0.25 2.39 2.13 1004.7
20260506184359 10 85 3.2 16.1 0.25 2.36 2.11 1004.7
20260506183857 10 69 8.0 16.1 0.25 2.36 2.11 1004.7
20260506183356 11 0 3.2 11.3 0.28 2.36 2.11 1004.7
20260506182855 11 15 0.0 11.3 0.28 2.34 2.08 1004.7
20260506182354 11 22 4.8 9.7 0.23 2.29 2.03 1004.7
20260506181852 11 22 3.2 11.3 0.23 2.26 2.01 1004.7
20260506181350 11 22 4.8 11.3 0.23 2.24 1.98 1004.7
20260506180745 11 8 6.4 9.7 0.25 2.21 1.96 1004.7
20260506180244 11 10 4.8 6.4 0.23 2.18 1.93 1004.7
20260506175742 11 10 1.6 6.4 0.25 2.16 1.91 1004.7
20260506175240 11 10 3.2 9.7 0.28 2.16 1.91 1004.7
20260506174738 11 10 0.0 11.3 0.28 2.13 1.88 1005.1
20260506174237 11 21 4.8 11.3 0.30 2.11 1.85 1005.1
20260506173735 11 37 4.8 11.3 0.33 2.08 1.83 1004.7
20260506173233 11 28 3.2 9.7 0.33 2.06 1.80 1005.1
20260506172731 11 44 4.8 9.7 0.36 2.06 1.80 1005.1
20260506172230 11 15 0.0 9.7 0.41 2.06 1.80 1005.1
20260506171657 11 16 1.6 6.4 0.38 2.01 1.75 1005.1
20260506171156 11 15 0.0 11.3 0.38 1.98 1.73 1005.1
20260506170653 11 67 0.0 11.3 0.36 1.96 1.70 1005.1
20260506170150 11 91 9.7 11.3 0.38 1.96 1.70 1005.1
20260506165648 11 357 1.6 11.3 0.36 1.91 1.65 1005.4
20260506165146 11 76 3.2 11.3 0.36 1.88 1.63 1005.4
20260506164612 12 33 1.6 9.7 0.36 1.83 1.57 1005.4
20260506164111 12 33 3.2 6.4 0.36 1.80 1.55 1005.8
20260506163609 12 33 3.2 6.4 0.33 1.75 1.50 1005.4
20260506163108 12 33 0.0 6.4 0.33 1.73 1.47 1005.4
20260506162607 12 176 1.6 14.5 0.33 1.70 1.45 1005.4
20260506162104 12 199 0.0 14.5 0.30 1.65 1.40 1005.8
20260506161602 12 19 4.8 14.5 0.33 1.63 1.37 1005.8
20260506161059 12 55 0.0 9.7 0.33 1.60 1.35 1005.8
20260506160527 12 55 1.6 9.7 0.36 1.60 1.35 1005.8
20260506160023 12 55 3.2 9.7 0.38 1.57 1.32 1005.8
20260506155450 12 55 0.0 9.7 0.38 1.52 1.27 1005.8
20260506154918 12 55 0.0 9.7 0.38 1.50 1.24 1006.1
20260506154345 12 55 1.6 4.8 0.41 1.47 1.22 1006.1
20260506153844 12 55 0.0 4.8 0.41 1.45 1.19 1006.1
20260506153343 12 55 1.6 9.7 0.41 1.42 1.17 1006.1
20260506152838 12 55 1.6 9.7 0.38 1.37 1.12 1006.1
20260506152336 12 55 1.6 11.3 0.38 1.35 1.09 1006.1
20260506151835 12 55 1.6 11.3 0.38 1.32 1.07 1006.1
20260506151333 12 56 4.8 11.3 0.36 1.27 1.02 1006.1
20260506150832 12 56 3.2 6.4 0.36 1.24 0.99 1006.4
20260506150331 12 56 0.0 3.2 0.36 1.22 0.97 1006.4
20260506145830 12 11 0.0 0.0 0.36 1.19 0.94 1006.4
20260506145325 13 11 0.0 0.0 0.33 1.14 0.89 1006.8
20260506144751 13 12 0.0 0.0 0.30 1.09 0.84 1006.4
20260506144249 13 12 0.0 0.0 0.30 1.07 0.81 1006.8
20260506143748 13 12 0.0 0.0 0.28 1.04 0.79 1006.8
20260506143246 13 11 0.0 0.0 0.28 1.02 0.76 1006.8
20260506142744 12 11 0.0 0.0 0.25 0.99 0.74 1007.1
20260506142211 12 16 0.0 0.0 0.25 0.97 0.71 1007.1
20260506141709 12 15 0.0 0.0 0.25 0.94 0.69 1007.1
20260506141208 12 15 0.0 0.0 0.20 0.89 0.64 1007.1
20260506140707 12 14 0.0 11.3 0.20 0.86 0.61 1007.1
20260506140205 12 14 0.0 11.3 0.20 0.84 0.58 1007.5
20260506135703 12 55 0.0 6.4 0.20 0.84 0.58 1007.5
20260506135202 12 55 0.0 6.4 0.20 0.81 0.56 1007.1
20260506134701 12 55 0.0 6.4 0.20 0.79 0.53 1006.8
20260506134200 12 55 0.0 9.7 0.20 0.76 0.51 1006.8
20260506133658 12 55 0.0 9.7 0.20 0.74 0.48 1006.8
20260506133157 12 55 0.0 4.8 0.20 0.74 0.48 1006.8
20260506132625 12 55 0.0 6.4 0.23 0.74 0.48 1006.8
20260506132124 12 55 0.0 6.4 0.23 0.71 0.46 1006.8
20260506131622 12 55 0.0 6.4 0.23 0.69 0.43 1006.8
20260506131121 12 55 0.0 4.8 0.23 0.69 0.43 1006.8
20260506130619 12 55 0.0 4.8 0.23 0.66 0.41 1006.8
20260506130117 12 55 0.0 4.8 0.20 0.64 0.38 1006.8
20260506125616 12 55 0.0 4.8 0.20 0.64 0.38 1007.1
20260506125114 12 55 1.6 6.4 0.20 0.61 0.36 1007.1
20260506124542 12 55 0.0 6.4 0.18 0.58 0.33 1007.1
20260506124041 12 55 3.2 6.4 0.15 0.56 0.30 1007.1
20260506123509 12 55 0.0 6.4 0.13 0.53 0.28 1007.5
20260506122936 12 55 0.0 6.4 0.13 0.53 0.28 1007.1
20260506122435 12 55 3.2 6.4 0.10 0.51 0.25 1007.5
20260506121932 12 55 0.0 4.8 0.08 0.48 0.23 1007.5
20260506121430 12 55 1.6 4.8 0.05 0.46 0.20 1007.8
20260506120928 12 55 0.0 4.8 0.03 0.43 0.18 1007.8
20260506120426 12 55 0.0 4.8 0.03 0.43 0.18 1007.8
20260506115925 12 55 0.0 4.8 0.05 0.43 0.18 1007.8
20260506115424 12 55 0.0 4.8 0.03 0.41 0.15 1007.5
20260506114922 12 55 1.6 4.8 0.03 0.41 0.15 1007.5
20260506114421 12 55 0.0 3.2 0.03 0.41 0.15 1006.8
20260506113919 12 55 0.0 3.2 0.03 0.41 0.15 1007.1
20260506113418 12 212 0.0 0.0 0.03 0.41 0.15 1007.1
20260506112916 12 212 0.0 0.0 0.03 0.41 0.15 1006.8
20260506112343 12 212 0.0 0.0 0.03 0.41 0.15 1006.8
20260506111841 12 212 0.0 4.8 0.03 0.41 0.15 1007.1
20260506111340 12 212 0.0 4.8 0.03 0.41 0.15 1007.1
20260506110839 12 212 0.0 4.8 0.03 0.41 0.15 1007.5
20260506110234 12 212 0.0 0.0 0.03 0.41 0.15 1007.5
20260506105733 12 212 0.0 0.0 0.00 0.38 0.13 1007.1
20260506105231 12 212 0.0 0.0 0.00 0.38 0.13 1007.1
20260506104729 12 212 0.0 0.0 0.00 0.38 0.13 1007.1
20260506104228 12 212 0.0 4.8 0.00 0.38 0.13 1007.1
20260506103725 12 212 0.0 4.8 0.00 0.38 0.13 1007.5
20260506103153 12 212 0.0 3.2 0.00 0.38 0.13 1007.1
20260506102651 12 212 0.0 0.0 0.00 0.38 0.13 1007.1
20260506102149 11 213 0.0 0.0 0.00 0.38 0.13 1007.5
20260506101648 11 213 0.0 0.0 0.00 0.41 0.13 1007.5
20260506101116 11 213 0.0 0.0 0.00 0.41 0.13 1007.5
20260506100614 11 213 0.0 0.0 0.00 0.41 0.13 1007.1
20260506100113 12 212 0.0 0.0 0.00 0.41 0.13 1006.8
20260506095611 12 212 0.0 0.0 0.00 0.41 0.13 1006.8
20260506095109 12 212 0.0 0.0 0.00 0.41 0.13 1006.8
20260506094608 11 212 0.0 0.0 0.00 0.41 0.13 1006.8
20260506094106 12 212 0.0 0.0 0.00 0.41 0.13 1006.8
20260506093604 12 212 0.0 3.2 0.00 0.41 0.13 1006.8
20260506093101 12 212 0.0 3.2 0.00 0.41 0.13 1006.8
20260506092600 12 212 0.0 0.0 0.00 0.41 0.13 1006.8
20260506092059 12 212 0.0 0.0 0.00 0.41 0.13 1006.8
20260506091558 12 212 0.0 0.0 0.00 0.41 0.13 1006.8
20260506091057 12 212 0.0 0.0 0.00 0.41 0.13 1006.8
20260506090555 12 212 0.0 0.0 0.00 0.41 0.13 1006.8
20260506090053 12 212 0.0 0.0 0.00 0.41 0.13 1007.1
20260506085552 12 212 0.0 0.0 0.00 0.41 0.13 1006.8
20260506085050 12 212 0.0 0.0 0.00 0.41 0.13 1006.8
20260506084516 12 212 0.0 0.0 0.00 0.41 0.13 1007.1
20260506084014 12 212 0.0 0.0 0.00 0.41 0.13 1007.1
20260506083512 12 212 0.0 4.8 0.00 0.41 0.13 1007.1
20260506083010 12 212 1.6 4.8 0.00 0.41 0.13 1007.1
20260506082508 12 212 0.0 4.8 0.00 0.41 0.13 1007.1
20260506082007 12 212 0.0 0.0 0.00 0.41 0.13 1007.1
20260506081435 12 212 0.0 0.0 0.00 0.41 0.13 1007.5
20260506080903 12 212 0.0 0.0 0.00 0.41 0.13 1007.5
20260506080401 12 212 0.0 4.8 0.00 0.41 0.13 1007.5
20260506073352 12 212 0.0 3.2 0.00 0.41 0.13 1007.8
20260506072818 12 212 0.0 3.2 0.00 0.41 0.13 1007.8
20260506072317 12 212 0.0 3.2 0.00 0.41 0.13 1007.8
20260506071816 12 212 0.0 0.0 0.00 0.41 0.13 1007.8
20260506071314 12 212 0.0 0.0 0.00 0.41 0.13 1007.8
20260506070813 12 212 0.0 0.0 0.00 0.41 0.13 1007.8
20260506070311 12 212 0.0 0.0 0.00 0.41 0.13 1007.8
20260506062157 13 212 0.0 6.4 0.00 0.41 0.13 1008.1
20260506061552 13 212 0.0 6.4 0.00 0.41 0.13 1008.1
20260506061049 13 211 3.2 6.4 0.00 0.41 0.13 1008.1
20260506060517 13 209 0.0 9.7 0.00 0.41 0.13 1008.1
20260506051325 15 208 1.6 6.4 0.00 0.41 0.13 1008.5
20260506050823 15 208 4.8 9.7 0.00 0.41 0.13 1008.1
20260506050322 15 208 0.0 9.7 0.00 0.41 0.13 1008.1
20260506044819 15 278 0.0 0.0 0.13 0.41 0.13 1008.1
20260506044316 15 279 0.0 4.8 0.13 0.41 0.13 1008.1
20260506043815 15 278 0.0 4.8 0.13 0.41 0.13 1008.5
20260506043314 15 279 0.0 6.4 0.13 0.41 0.13 1008.5
20260506042811 15 278 0.0 6.4 0.13 0.41 0.13 1008.1
20260506042310 16 278 1.6 6.4 0.13 0.41 0.13 1008.5
20260506041809 16 278 1.6 4.8 0.13 0.41 0.13 1008.5
20260506041237 16 279 0.0 4.8 0.13 0.41 0.13 1008.1
20260506040735 16 278 0.0 9.7 0.13 0.41 0.13 1008.5
20260506040234 16 278 0.0 9.7 0.10 0.38 0.10 1008.1
20260506035732 16 276 3.2 6.4 0.00 0.28 0.28 1008.1
20260506035230 16 274 0.0 4.8 0.00 0.28 0.28 1008.1
20260506034729 16 274 0.0 6.4 0.00 0.28 0.28 1008.5
20260506034227 16 274 3.2 11.3 0.00 0.28 0.28 1008.1
20260506033725 16 274 1.6 11.3 0.00 0.28 0.28 1008.1
20260506033224 16 267 6.4 11.3 0.00 0.28 0.28 1008.1
20260506032722 16 289 6.4 11.3 0.00 0.28 0.28 1008.1
20260506032221 16 209 3.2 9.7 0.00 0.28 0.28 1008.1
20260506031649 16 183 0.0 6.4 0.00 0.28 0.28 1008.1
20260506031116 16 183 3.2 6.4 0.00 0.28 0.28 1008.1
20260506030543 15 183 0.0 4.8 0.00 0.28 0.28 1008.1
20260506030042 15 183 0.0 0.0 0.00 0.28 0.28 1007.8
20260506025540 15 183 0.0 0.0 0.00 0.28 0.28 1007.8
20260506025037 15 183 0.0 0.0 0.00 0.28 0.28 1007.8
20260506024536 15 183 0.0 0.0 0.00 0.28 0.28 1008.1
20260506024034 15 183 0.0 0.0 0.00 0.28 0.28 1008.1
20260506023533 15 183 0.0 0.0 0.00 0.28 0.28 1007.8
20260506023031 15 183 0.0 0.0 0.00 0.28 0.28 1007.8
20260506022529 15 183 0.0 0.0 0.00 0.28 0.28 1007.8
20260506022029 15 183 0.0 0.0 0.00 0.28 0.28 1007.8
20260506021527 15 183 0.0 0.0 0.00 0.28 0.28 1007.8
20260506021026 15 183 0.0 0.0 0.00 0.28 0.28 1007.8
20260506020524 15 183 0.0 0.0 0.00 0.28 0.28 1007.8
20260506020023 15 183 0.0 0.0 0.00 0.28 0.28 1007.8
20260506015522 15 183 0.0 0.0 0.00 0.28 0.28 1007.8
20260506015020 16 183 0.0 4.8 0.00 0.28 0.28 1007.5
20260506014518 16 183 0.0 4.8 0.00 0.28 0.28 1007.5
20260506014015 16 183 0.0 4.8 0.00 0.28 0.28 1007.5
20260506013514 16 183 0.0 4.8 0.00 0.28 0.28 1007.5
20260506013013 16 183 0.0 0.0 0.00 0.28 0.28 1007.1
20260506012511 16 183 0.0 0.0 0.00 0.28 0.28 1007.1
20260506012010 16 183 0.0 0.0 0.00 0.28 0.28 1007.1
20260506011438 16 183 0.0 6.4 0.00 0.28 0.28 1007.1
20260506010936 16 183 0.0 6.4 0.00 0.28 0.28 1006.8
20260506010435 16 183 0.0 6.4 0.00 0.28 0.28 1006.8
20260506005934 16 183 0.0 4.8 0.00 0.28 0.28 1006.8
20260506005432 16 183 0.0 4.8 0.00 0.28 0.28 1006.8
20260506004931 16 183 0.0 4.8 0.00 0.28 0.28 1007.1
20260506004430 16 183 1.6 9.7 0.00 0.28 0.28 1007.1
20260506003857 16 183 0.0 9.7 0.00 0.28 0.28 1006.8
20260506003354 16 178 3.2 9.7 0.00 0.28 0.28 1006.8
20260506002853 16 178 4.8 9.7 0.00 0.28 0.28 1006.8
20260506002320 16 178 1.6 4.8 0.00 0.28 0.28 1006.4
20260506001818 16 178 0.0 4.8 0.00 0.28 0.28 1006.1
20260506001317 16 178 0.0 0.0 0.00 0.28 0.28 1006.1
20260506000642 16 178 0.0 4.8 0.00 0.28 0.28 1006.1
20260506000140 17 178 0.0 4.8 0.00 0.28 0.28 1006.1
20260505235608 17 178 1.6 4.8 0.00 0.28 0.28 1006.1
20260505235107 17 178 0.0 4.8 0.00 0.28 0.28 1006.1
20260505234606 17 178 0.0 4.8 0.00 0.28 0.28 1006.1
20260505234105 17 178 1.6 6.4 0.00 0.28 0.28 1006.1
20260505233604 17 178 0.0 9.7 0.00 0.28 0.28 1006.1
20260505233103 17 178 4.8 9.7 0.00 0.28 0.28 1006.1
20260505232600 18 184 6.4 9.7 0.00 0.28 0.28 1006.1
20260505232059 18 224 3.2 9.7 0.00 0.28 0.28 1005.8
20260505231558 18 251 3.2 9.7 0.00 0.28 0.28 1005.8
20260505231057 18 222 1.6 14.5 0.00 0.28 0.28 1005.4
20260505230554 18 280 4.8 16.1 0.00 0.28 0.28 1005.4
20260505230052 18 280 1.6 16.1 0.00 0.28 0.28 1005.1
20260505225551 18 257 6.4 19.3 0.00 0.28 0.28 1005.1
20260505224947 18 251 4.8 19.3 0.00 0.28 0.28 1005.1
20260505224446 18 259 6.4 30.6 0.00 0.28 0.28 1005.1
20260505223913 18 270 8.0 30.6 0.00 0.28 0.28 1005.1
20260505223412 18 283 12.9 35.4 0.00 0.28 0.28 1005.1
20260505222910 18 266 11.3 35.4 0.00 0.28 0.28 1005.4
20260505222408 18 262 11.3 35.4 0.00 0.28 0.28 1005.4
20260505221907 18 272 17.7 32.2 0.00 0.28 0.28 1005.4
20260505221405 18 282 11.3 30.6 0.00 0.28 0.28 1005.4
20260505220832 19 279 16.1 32.2 0.00 0.28 0.28 1005.8
20260505220332 19 277 11.3 32.2 0.00 0.28 0.28 1005.8
20260505215830 20 279 11.3 35.4 0.00 0.28 0.28 1005.8
20260505215329 20 277 19.3 35.4 0.00 0.28 0.28 1005.8
20260505214828 20 264 12.9 35.4 0.00 0.28 0.28 1005.8
20260505214327 20 269 12.9 32.2 0.00 0.28 0.28 1005.4
20260505213825 20 270 12.9 32.2 0.00 0.28 0.28 1005.1
20260505213322 20 282 14.5 29.0 0.00 0.28 0.28 1004.7
20260505212821 20 322 8.0 24.1 0.00 0.28 0.28 1004.4
20260505212319 20 288 9.7 30.6 0.00 0.28 0.28 1004.4
20260505211817 20 275 11.3 49.9 0.00 0.28 0.28 1004.7
20260505211316 20 267 11.3 49.9 0.00 0.28 0.28 1004.7
20260505210814 21 293 16.1 49.9 0.00 0.28 0.28 1004.7
20260505210312 21 284 6.4 38.6 0.00 0.28 0.28 1004.7
20260505205811 21 284 17.7 38.6 0.00 0.28 0.28 1004.7
20260505205310 21 281 9.7 25.7 0.00 0.28 0.28 1004.4
20260505204807 21 284 6.4 16.1 0.00 0.28 0.28 1004.1
20260505204306 21 272 8.0 16.1 0.03 0.28 0.28 1003.7
20260505203805 21 319 1.6 11.3 0.13 0.28 0.28 1003.4
20260505203304 21 256 4.8 14.5 0.25 0.28 0.28 1003.4
20260505202730 20 285 4.8 14.5 0.25 0.28 0.28 1003.4